Tracking 31027 objects as of 19-Jul-2025
HD Live streaming from Space Station
objects crossing your sky now

STARLINK-6079

Track STARLINK-6079 now!
10-day predictions
STARLINK-6079 is classified as:


NORAD ID: 56120
Int'l Code: 2023-046AD
Perigee: 565.4 km
Apogee: 567.0 km
Inclination: 43.0 °
Period: 95.8 minutes
Semi major axis: 6937 km
RCS: Unknown
Launch date: March 29, 2023
Source: United States (US)
Launch site: AIR FORCE EASTERN TEST RANGE (AFETR)
Your satellite tracking list
STARLINK-30236
Track 1 satellite(s)




NASA's NSSDC Master Catalog

Two Line Element Set (TLE):
1 56120U 23046AD  25199.73497136 -.00000231  00000-0 -20408-5 0  9992
2 56120  43.0043 337.6865 0001194 269.1488  90.9217 15.02535248127554
Source of the keplerian elements: AFSPC